GW3752 Weather Reports


time (UTC)temp
C
wind
direction
speed
KPH
gust
KPH
rain 1hr
cm
rain 24hr
cm
rain mn
cm
humidity
%
barometer
mb
20260906113034 23 290 3.2 8.0 0.00 0.00 0.00 85 1013.6
20260906111536 23 297 3.2 8.0 0.00 0.00 0.00 85 1013.4
20260906110035 23 277 4.8 8.0 0.00 0.00 0.00 85 1013.1
20260906104538 23 313 1.6 3.2 0.00 0.00 0.00 85 1012.9
20260906103034 23 339 1.6 4.8 0.00 0.00 0.00 84 1012.7
20260906101534 24 320 4.8 8.0 0.00 0.00 0.00 83 1012.5
20260906100036 24 337 6.4 9.7 0.00 0.00 0.00 83 1012.5
20260906094534 24 296 3.2 8.0 0.00 0.00 0.00 83 1012.4
20260906093046 24 341 4.8 9.7 0.00 0.00 0.00 83 1012.3
20260906091535 24 342 8.0 11.3 0.00 0.00 0.00 82 1012.2
20260906090035 24 339 6.4 9.7 0.00 0.00 0.00 82 1012.1
20260906084542 23 346 3.2 6.4 0.00 0.00 0.00 83 1012.1
20260906083035 23 0 0.0 3.2 0.00 0.00 0.00 82 1012.1
20260906081534 23 358 3.2 6.4 0.00 0.00 0.00 81 1012.1
20260906080049 23 0 0.0 1.6 0.00 0.00 0.00 83 1012.1
20260906074537 23 360 0.0 3.2 0.00 0.00 0.00 83 1012.0
20260906073035 23 354 3.2 3.2 0.00 0.00 0.00 82 1012.1
20260906071534 23 355 0.0 1.6 0.00 0.00 0.00 82 1012.1
20260906070039 23 341 1.6 3.2 0.00 0.00 0.00 82 1012.2
20260906064536 23 356 0.0 3.2 0.00 0.00 0.00 82 1012.5
20260906063036 23 0 0.0 1.6 0.00 0.00 0.00 82 1012.2
20260906061539 24 308 0.0 1.6 0.00 0.00 0.00 81 1012.3
20260906060042 24 0 0.0 0.0 0.00 0.00 0.00 79 1012.4
20260906054534 24 0 0.0 1.6 0.00 0.00 0.00 79 1012.5
20260906053036 25 325 3.2 8.0 0.00 0.00 0.00 79 1012.7
20260906051537 24 353 1.6 12.9 0.00 0.00 0.00 79 1012.5
20260906050041 25 316 1.6 3.2 0.00 0.00 0.00 77 1012.3
20260906044536 25 0 0.0 0.0 0.00 0.00 0.00 74 1012.3
20260906043036 25 0 0.0 1.6 0.00 0.00 0.00 74 1012.3
20260906041542 25 0 0.0 0.0 0.00 0.00 0.00 74 1012.2
20260906040044 26 0 0.0 1.6 0.00 0.00 0.00 74 1012.2
20260906034537 26 0 0.0 0.0 0.00 0.00 0.00 73 1012.1
20260906033036 26 0 0.0 1.6 0.00 0.00 0.00 71 1012.1
20260906031535 27 0 0.0 3.2 0.00 0.00 0.00 69 1011.9
20260906030037 27 189 0.0 3.2 0.00 0.00 0.00 69 1011.8
20260906024535 27 0 0.0 3.2 0.00 0.00 0.00 68 1011.7
20260906023043 27 0 0.0 8.0 0.00 0.00 0.00 68 1011.6
20260906021534 27 243 1.6 17.7 0.00 0.00 0.00 78 1011.2
20260906020034 28 0 0.0 0.0 0.00 0.00 0.00 66 1011.1
20260906014544 28 0 0.0 0.0 0.00 0.00 0.00 64 1011.2
20260906013034 28 0 0.0 3.2 0.00 0.00 0.00 63 1011.3
20260906011535 30 169 1.6 3.2 0.00 0.00 0.00 59 1011.1
20260906010036 30 254 1.6 4.8 0.00 0.00 0.00 59 1010.9
20260906004535 30 237 1.6 8.0 0.00 0.00 0.00 58 1010.8
20260906003034 31 182 1.6 4.8 0.00 0.00 0.00 56 1010.9
20260906001535 31 0 0.0 1.6 0.00 0.00 0.00 65 1011.0
20260906000034 32 211 0.0 4.8 0.00 0.00 0.00 50 1011.3
20260905234536 32 221 4.8 9.7 0.00 0.00 0.00 60 1011.3
20260905233042 33 198 0.0 4.8 0.00 0.00 0.00 59 1011.1
20260905231549 33 174 4.8 9.7 0.00 0.00 0.00 44 1011.0
20260905230034 34 225 1.6 20.9 0.00 0.00 0.00 41 1010.8
20260905224539 36 196 4.8 11.3 0.00 0.00 0.00 40 1010.3
20260905223035 36 259 1.6 8.0 0.00 0.00 0.00 39 1010.5
20260905221541 36 216 1.6 4.8 0.00 0.00 0.00 40 1010.6
20260905220038 35 247 1.6 4.8 0.00 0.00 0.00 54 1010.6
20260905214534 35 267 3.2 8.0 0.00 0.00 0.00 54 1010.6
20260905213037 34 254 3.2 9.7 0.00 0.00 0.00 42 1010.6
20260905211535 33 273 1.6 11.3 0.00 0.00 0.00 44 1010.8
20260905210035 34 266 6.4 20.9 0.00 0.00 0.00 56 1011.1
20260905204537 36 295 0.0 9.7 0.00 0.00 0.00 52 1011.0
20260905203038 36 226 4.8 11.3 0.00 0.00 0.00 35 1011.3
20260905201535 37 187 12.9 17.7 0.00 0.00 0.00 34 1011.5
20260905200033 37 237 8.0 14.5 0.00 0.00 0.00 48 1011.4
20260905194535 37 107 6.4 20.9 0.00 0.00 0.00 36 1011.8
20260905193035 37 248 9.7 24.1 0.00 0.00 0.00 35 1011.9
20260905191537 38 0 3.2 8.0 0.00 0.00 0.00 35 1012.3
20260905190056 37 0 3.2 12.9 0.00 0.00 0.00 37 1012.6
20260905184553 37 283 3.2 9.7 0.00 0.00 0.00 38 1012.5
20260905183036 36 259 6.4 11.3 0.00 0.00 0.00 51 1012.8
20260905181534 36 229 6.4 11.3 0.00 0.00 0.00 41 1013.2
20260905180035 36 277 3.2 9.7 0.00 0.00 0.00 52 1013.2
20260905174543 36 272 3.2 9.7 0.00 0.00 0.00 53 1013.2
20260905173039 36 256 3.2 14.5 0.00 0.00 0.00 42 1013.3
20260905171533 35 354 6.4 11.3 0.00 0.00 0.00 54 1013.3
20260905170037 35 268 4.8 17.7 0.00 0.00 0.00 55 1013.3
20260905164536 35 183 4.8 9.7 0.00 0.00 0.00 55 1013.6
20260905163036 34 236 8.0 14.5 0.00 0.00 0.00 46 1013.9
20260905161537 34 267 4.8 11.3 0.00 0.00 0.00 48 1014.0
20260905160035 34 272 4.8 11.3 0.00 0.00 0.00 62 1014.2
20260905154534 33 227 4.8 9.7 0.00 0.00 0.00 52 1014.1
20260905153036 33 282 1.6 8.0 0.00 0.00 0.00 54 1014.1
20260905151538 32 300 4.8 11.3 0.00 0.00 0.00 69 1014.1
20260905150034 32 229 6.4 8.0 0.00 0.00 0.00 57 1014.1
20260905144541 32 263 4.8 11.3 0.00 0.00 0.00 68 1014.2
20260905143035 31 190 6.4 11.3 0.00 0.00 0.00 70 1014.3
20260905141542 30 208 6.4 11.3 0.00 0.00 0.00 60 1014.3
20260905140036 30 184 1.6 6.4 0.00 0.00 0.00 65 1014.4
20260905134537 29 166 0.0 3.2 0.00 0.00 0.00 68 1014.5
20260905133036 28 176 3.2 8.0 0.00 0.00 0.00 72 1014.5
20260905131552 27 171 1.6 4.8 0.00 0.00 0.00 76 1014.6
20260905130038 26 167 4.8 6.4 0.00 0.00 0.00 78 1014.6
20260905124546 26 0 0.0 0.0 0.00 0.00 0.00 79 1014.6
20260905123045 25 0 0.0 0.0 0.00 0.00 0.00 81 1014.6
20260905121538 24 0 0.0 1.6 0.00 0.00 0.00 84 1014.5
20260905120036 23 178 0.0 3.2 0.00 0.00 0.00 85 1014.3
20260905114542 22 176 1.6 3.2 0.00 0.00 0.00 85 1014.2